Tracking 28792 objects as of 25-Apr-2024
HD Live streaming from Space Station
objects crossing your sky now

BREEZE-M R/B

Track BREEZE-M R/B now!


NORAD ID: 42750
Int'l Code: 2017-032B
Perigee: 1,811.7 km
Apogee: 34,450.1 km
Inclination: 31.2 °
Period: 636.2 minutes
Semi major axis: 24501 km
RCS: Unknown
Launch date: June 8, 2017
Source: Commonwealth of Independent States (former USSR) (CIS)
Launch site: TYURATAM MISSILE AND SPACE COMPLEX (TTMTR)

Note: This is a ROCKET BODY
Your satellite tracking list
Your tracking list is empty




NASA's NSSDC Master Catalog

Two Line Element Set (TLE):
1 42750U 17032B   24113.93781278 -.00000044  00000-0  00000-0 0  9996
2 42750  31.2022  43.9943 6660371 276.1699  17.5278  2.26361542 56890
Source of the keplerian elements: AFSPC